HARP (45256 NORAD) Tracking and Keplerian Element Data

This shows tracking and keplerian element data for the satellite.

Feedback or suggestion? Click here.




ElementValue
Catalog45256
NameHARP
Epoch Orbit2276
Epoch Day196.88387063
Epoch Year2020
RAAN209.9067
Inclination51.6425
Eccentricity0.0007736
Argument of Perigee98.3926
Mean Anonmoly261.7941
Mean Motion15.51279459
Decay Rate1.578E-05
L11 45256U 98067QZ 20196.88387063 .00001578 00000-0 34210-4 0 9998
L22 45256 51.6425 209.9067 0007736 98.3926 261.7941 15.51279459 22765

Live tracking and technical data element details for HARP (NORAD 45256). HARP can be tracked NOW for your location showing map with azimuth and elevation plus other details from your city location.

Track the satellite on the map from your city or location and see movement details for azimuth, elevation, latitude, longitude, range, height, and movement on the map or in text.







IsCatalogInMostPopularTable: catalog: 45256, numindb: 37
Update: records affected: 1



GetName: 45256 HARP

Hit Count: updated at: Thu, 16 Jul 2020 04:42:36 GMT